User: anonymous   Login
Location: Unspecified
(0.0000°N, 0.0000°E)
Time: 04:04:08
(UTC+00:00)
Language:

DNEPR OBJECT AF - Orbit

View from above orbital plane
View from above orbital plane
View from above satellite
View from above satellite

Ground track
Ground track

The orbit data is extracted from the following two-line orbital elements,

1 39445U 13066AF  18022.65887178  .00000208  00000-0  32378-4 0  9991
2 39445  97.6068  60.2154 0056920 268.3179  91.1514 14.81491481223660
Epoch (UTC): 22 January 2018 15:48:46
Eccentricity: 0.0056920
inclination: 97.6068°
perigee height: 585 km
apogee height: 664 km
right ascension of ascending node: 60.2154°
argument of perigee: 268.3179°
revolutions per day: 14.81491481
mean anomaly at epoch: 91.1514°
orbit number at epoch: 22366

The dashed part of the orbit path shows where the satellite is in the earth's shadow,  

DLR